• In Denmark
  • List of Countries
  • For 7 days
  • Water Temperature
  • Satellite Maps
  • Weather Map
  • Weather Widgets
  • user-avatar
    Login

    Hourly Weather Szczerez

    Today, 24 May, Thursday

    Time Temperature Precipitation Wind Pressure Humidity
    00:00 +13°C° 0.1 mm 1 mps 718 mmHg 95%
    01:00 +13°C° 0 mm 1 mps 718 mmHg 95%
    02:00 +13°C° 0.1 mm 1 mps 718 mmHg 95%
    03:00 +12°C° 0.1 mm 1 mps 718 mmHg 96%
    04:00 +12°C° 0.1 mm 1 mps 718 mmHg 96%
    05:00 +13°C° 0 mm 2 mps 718 mmHg 94%
    06:00 +14°C° 0 mm 2 mps 719 mmHg 92%
    07:00 +16°C° 0 mm 2 mps 719 mmHg 89%
    08:00 +17°C° 0.1 mm 2 mps 719 mmHg 85%
    09:00 +18°C° 0.1 mm 3 mps 719 mmHg 81%
    10:00 +19°C° 0.1 mm 3 mps 719 mmHg 77%
    11:00 +20°C° 0.2 mm 4 mps 719 mmHg 73%
    12:00 +20°C° 0.2 mm 4 mps 719 mmHg 69%
    13:00 +21°C° 0.2 mm 4 mps 719 mmHg 65%
    14:00 +21°C° 0.2 mm 4 mps 718 mmHg 65%
    15:00 +21°C° 0.2 mm 4 mps 718 mmHg 65%
    16:00 +21°C° 0.2 mm 4 mps 718 mmHg 65%
    17:00 +19°C° 0 mm 3 mps 718 mmHg 71%
    18:00 +18°C° 0 mm 3 mps 718 mmHg 76%
    19:00 +16°C° 0 mm 2 mps 717 mmHg 82%
    20:00 +15°C° 0 mm 2 mps 717 mmHg 85%
    21:00 +14°C° 0 mm 2 mps 717 mmHg 88%
    22:00 +13°C° 0 mm 1 mps 717 mmHg 92%
    23:00 +12°C° 0 mm 1 mps 717 mmHg 92%

    Tomorrow, 25 May, Friday

    Time Temperature Precipitation Wind Pressure Humidity
    00:00 +12°C° 0 mm 1 mps 717 mmHg 93%
    01:00 +11°C° 0 mm 1 mps 717 mmHg 93%
    02:00 +11°C° 0 mm 1 mps 717 mmHg 94%
    03:00 +11°C° 0 mm 1 mps 717 mmHg 94%
    04:00 +10°C° 0 mm 1 mps 717 mmHg 95%
    05:00 +12°C° 0 mm 1 mps 717 mmHg 89%
    06:00 +14°C° 0 mm 1 mps 717 mmHg 84%
    07:00 +16°C° 0 mm 2 mps 718 mmHg 78%
    08:00 +17°C° 0 mm 2 mps 718 mmHg 72%
    09:00 +19°C° 0 mm 3 mps 718 mmHg 66%
    10:00 +20°C° 0 mm 3 mps 718 mmHg 59%
    11:00 +21°C° 0 mm 3 mps 718 mmHg 58%
    12:00 +21°C° 0 mm 3 mps 718 mmHg 57%
    13:00 +22°C° 0 mm 3 mps 718 mmHg 56%
    14:00 +21°C° 0.2 mm 3 mps 718 mmHg 60%
    15:00 +21°C° 0.2 mm 3 mps 718 mmHg 64%
    16:00 +21°C° 0.2 mm 2 mps 717 mmHg 69%
    17:00 +19°C° 0.1 mm 2 mps 717 mmHg 75%
    18:00 +18°C° 0.1 mm 2 mps 717 mmHg 82%
    19:00 +18°C° 0.1 mm 1 mps 717 mmHg 88%
    20:00 +16°C° 0 mm 1 mps 717 mmHg 90%
    21:00 +15°C° 0 mm 1 mps 718 mmHg 92%
    22:00 +14°C° 0 mm 1 mps 718 mmHg 93%
    23:00 +13°C° 0 mm 0 mps 718 mmHg 93%

    Day after tomorrow, 26 May, Saturday

    Time Temperature Precipitation Wind Pressure Humidity
    00:00 +12°C° 0 mm 0 mps 718 mmHg 93%
    01:00 +12°C° 0 mm 0 mps 718 mmHg 93%
    02:00 +12°C° 0 mm 0 mps 718 mmHg 93%
    03:00 +12°C° 0 mm 0 mps 718 mmHg 93%
    04:00 +12°C° 0 mm 0 mps 718 mmHg 92%
    05:00 +13°C° 0 mm 0 mps 719 mmHg 90%
    06:00 +15°C° 0 mm 0 mps 719 mmHg 87%
    07:00 +16°C° 0 mm 0 mps 719 mmHg 84%
    08:00 +18°C° 0.2 mm 0 mps 719 mmHg 79%
    09:00 +21°C° 0.2 mm 1 mps 720 mmHg 73%
    10:00 +23°C° 0.2 mm 1 mps 720 mmHg 68%
    11:00 +23°C° 0.4 mm 1 mps 720 mmHg 67%
    12:00 +24°C° 0.4 mm 2 mps 719 mmHg 65%
    13:00 +24°C° 0.4 mm 2 mps 719 mmHg 64%
    14:00 +24°C° 0.5 mm 2 mps 719 mmHg 66%
    15:00 +24°C° 0.5 mm 2 mps 719 mmHg 68%
    16:00 +23°C° 0.5 mm 2 mps 719 mmHg 70%
    17:00 +21°C° 0.3 mm 2 mps 719 mmHg 76%
    18:00 +21°C° 0.3 mm 1 mps 718 mmHg 82%
    19:00 +19°C° 0.3 mm 1 mps 718 mmHg 87%
    20:00 +19°C° 0.1 mm 1 mps 718 mmHg 89%
    21:00 +18°C° 0.1 mm 1 mps 718 mmHg 91%
    22:00 +16°C° 0.1 mm 1 mps 718 mmHg 92%
    23:00 +16°C° 0 mm 1 mps 718 mmHg 93%

    27 May, Sunday

    Time Temperature Precipitation Wind Pressure Humidity
    00:00 +15°C° 0 mm 1 mps 718 mmHg 93%
    01:00 +15°C° 0 mm 1 mps 718 mmHg 93%
    02:00 +14°C° 0 mm 1 mps 718 mmHg 93%
    03:00 +13°C° 0 mm 0 mps 718 mmHg 93%
    04:00 +13°C° 0 mm 0 mps 718 mmHg 93%
    05:00 +15°C° 0 mm 0 mps 718 mmHg 89%
    06:00 +16°C° 0 mm 0 mps 718 mmHg 84%
    07:00 +20°C° 0 mm 1 mps 719 mmHg 80%
    08:00 +21°C° 0.3 mm 1 mps 719 mmHg 76%
    09:00 +23°C° 0.3 mm 1 mps 719 mmHg 72%
    10:00 +24°C° 0.3 mm 1 mps 719 mmHg 68%
    11:00 +24°C° 0.6 mm 1 mps 719 mmHg 68%
    12:00 +24°C° 0.6 mm 2 mps 719 mmHg 68%
    13:00 +25°C° 0.6 mm 2 mps 719 mmHg 68%
    14:00 +24°C° 1.1 mm 2 mps 719 mmHg 70%
    15:00 +24°C° 1.1 mm 2 mps 718 mmHg 73%
    16:00 +24°C° 1.1 mm 2 mps 718 mmHg 75%
    17:00 +21°C° 0.4 mm 2 mps 718 mmHg 80%
    18:00 +21°C° 0.4 mm 1 mps 718 mmHg 85%
    19:00 +20°C° 0.4 mm 1 mps 718 mmHg 91%
    20:00 +19°C° 0 mm 1 mps 718 mmHg 92%
    21:00 +18°C° 0 mm 1 mps 719 mmHg 94%
    22:00 +16°C° 0 mm 1 mps 719 mmHg 95%
    23:00 +16°C° 0 mm 1 mps 719 mmHg 95%

    28 May, Monday

    Time Temperature Precipitation Wind Pressure Humidity
    00:00 +15°C° 0 mm 1 mps 719 mmHg 95%
    01:00 +15°C° 0 mm 1 mps 719 mmHg 96%
    02:00 +15°C° 0 mm 1 mps 719 mmHg 96%
    03:00 +15°C° 0 mm 1 mps 719 mmHg 96%
    04:00 +14°C° 0 mm 1 mps 719 mmHg 96%
    05:00 +16°C° 0 mm 1 mps 719 mmHg 92%
    06:00 +18°C° 0 mm 1 mps 720 mmHg 89%
    07:00 +20°C° 0 mm 1 mps 720 mmHg 85%
    08:00 +21°C° 0.1 mm 2 mps 720 mmHg 78%
    09:00 +23°C° 0.1 mm 2 mps 720 mmHg 70%
    10:00 +25°C° 0.1 mm 2 mps 721 mmHg 62%
    11:00 +25°C° 0.6 mm 3 mps 721 mmHg 64%
    12:00 +25°C° 0.6 mm 3 mps 721 mmHg 66%
    13:00 +25°C° 0.6 mm 4 mps 720 mmHg 68%
    14:00 +25°C° 0.7 mm 4 mps 720 mmHg 69%
    15:00 +25°C° 0.7 mm 4 mps 720 mmHg 70%
    16:00 +24°C° 0.7 mm 3 mps 720 mmHg 72%
    17:00 +22°C° 0.1 mm 3 mps 720 mmHg 76%
    18:00 +21°C° 0.1 mm 3 mps 720 mmHg 81%
    19:00 +19°C° 0.1 mm 3 mps 720 mmHg 85%
    20:00 +18°C° 0.1 mm 2 mps 720 mmHg 87%
    21:00 +17°C° 0.1 mm 2 mps 720 mmHg 90%
    22:00 +16°C° 0.1 mm 2 mps 720 mmHg 92%
    23:00 +16°C° 0 mm 2 mps 720 mmHg 93%

    29 May, Tuesday

    Time Temperature Precipitation Wind Pressure Humidity
    00:00 +15°C° 0 mm 2 mps 720 mmHg 94%
    01:00 +15°C° 0 mm 1 mps 720 mmHg 94%
    02:00 +14°C° 0 mm 1 mps 720 mmHg 94%
    03:00 +14°C° 0 mm 1 mps 720 mmHg 95%
    04:00 +14°C° 0 mm 1 mps 720 mmHg 95%
    05:00 +16°C° 0 mm 2 mps 720 mmHg 90%
    06:00 +18°C° 0 mm 2 mps 720 mmHg 84%
    07:00 +20°C° 0 mm 2 mps 721 mmHg 79%
    08:00 +21°C° 0 mm 2 mps 721 mmHg 71%
    09:00 +24°C° 0 mm 3 mps 721 mmHg 63%
    10:00 +26°C° 0 mm 3 mps 721 mmHg 56%
    11:00 +26°C° 0.1 mm 3 mps 721 mmHg 54%
    12:00 +27°C° 0.1 mm 3 mps 721 mmHg 53%
    13:00 +27°C° 0.1 mm 4 mps 721 mmHg 51%
    14:00 +27°C° 0.1 mm 4 mps 720 mmHg 53%
    15:00 +26°C° 0.1 mm 4 mps 720 mmHg 55%
    16:00 +26°C° 0.1 mm 3 mps 720 mmHg 57%
    17:00 +24°C° 0 mm 3 mps 720 mmHg 65%
    18:00 +21°C° 0 mm 3 mps 719 mmHg 73%
    19:00 +20°C° 0 mm 3 mps 719 mmHg 80%
    20:00 +19°C° 0 mm 2 mps 719 mmHg 84%
    21:00 +17°C° 0 mm 2 mps 719 mmHg 88%
    22:00 +16°C° 0 mm 2 mps 719 mmHg 91%
    23:00 +16°C° 0 mm 2 mps 719 mmHg 92%
    Show more